Lapse_Rate
7.0 7.2 7.0 7.0 6.9 6.9 6.7 6.4 6.6 6.8 6.9 7.2 7.3 7.3 7.5 7.6 7.4 6.8 5.4 6.1 5.8 5.7 5.7 6.1 5.8 6.3 6.2 6.2 6.2 6.3 6.7 6.7 6.7 6.6 6.3 6.5 6.5 6.2 6.2 6.2 6.1 6.1 6.0 5.8 5.8 5.9 5.9 5.7 6.0
7.2 7.1 7.0 6.9 6.8 6.8 6.4 6.3 6.5 6.6 6.8 6.9 7.0 6.9 6.9 7.1 6.8 6.6 5.8 5.7 5.8 5.9 5.8 5.6 6.2 6.2 6.1 6.1 6.1 6.2 6.2 6.4 6.5 6.9 6.7 6.5 6.5 6.5 6.4 6.2 6.2 6.3 6.1 5.9 5.9 6.0 5.8 5.7 5.9
7.3 7.2 7.0 6.8 6.7 6.7 6.2 6.4 6.6 6.7 6.6 6.6 6.4 6.5 6.6 6.8 6.4 6.3 5.9 5.7 5.4 5.6 6.0 5.7 6.0 6.1 6.1 6.1 6.0 6.1 6.2 6.3 6.3 6.4 6.6 6.5 6.4 6.4 6.3 6.4 6.4 6.4 6.1 6.0 6.1 6.1 6.0 5.9 6.0
7.2 7.0 6.9 6.7 6.5 6.3 6.2 6.3 6.4 6.3 6.4 6.4 6.4 6.2 6.4 6.4 6.3 5.9 5.8 5.8 5.4 5.5 5.6 5.7 5.9 6.0 6.0 6.1 6.1 6.1 6.1 6.2 6.2 6.2 6.2 6.4 6.5 6.3 6.4 6.3 6.3 6.4 6.3 6.0 5.8 6.0 6.1 6.1 6.1
7.0 6.9 6.8 6.7 6.6 6.6 6.3 6.2 6.2 6.1 6.1 6.1 6.2 6.5 6.4 6.4 6.0 5.9 5.9 5.6 5.5 5.6 5.6 5.8 5.9 5.8 6.0 6.1 5.9 5.9 5.9 6.1 6.2 6.2 6.3 6.2 6.3 6.2 6.3 6.3 6.3 6.4 6.4 6.1 6.1 5.8 6.0 6.0 6.0
6.9 6.7 6.6 6.5 6.5 6.3 5.9 5.9 5.9 5.8 5.8 5.9 5.8 5.9 6.0 6.0 5.9 5.9 5.8 5.7 5.4 5.4 5.5 5.6 5.8 5.9 6.1 6.3 6.0 5.9 6.0 5.9 6.0 6.2 6.0 6.2 6.3 6.2 6.3 6.2 6.2 6.2 6.3 6.4 6.2 6.1 6.0 6.1 6.2
6.7 6.5 6.5 6.5 6.3 6.0 6.1 5.9 5.9 5.9 5.9 5.8 5.7 5.6 5.8 5.7 5.7 5.6 5.5 5.5 5.6 5.6 5.6 5.6 5.7 5.9 5.9 6.0 6.2 6.1 6.0 5.9 5.8 5.9 6.0 6.1 6.1 6.2 6.2 6.2 6.0 6.1 6.2 6.3 6.3 6.0 6.1 6.1 6.2
6.4 6.4 6.3 6.1 6.0 5.9 5.8 5.6 5.6 5.7 5.6 5.6 5.6 5.6 5.7 5.6 5.5 5.5 5.5 5.4 5.4 5.3 5.4 5.5 5.6 5.5 5.6 5.7 5.8 5.9 6.0 6.1 6.1 5.9 5.9 5.8 5.9 6.0 6.1 6.1 6.1 6.0 6.1 6.1 6.2 6.2 6.0 6.1 6.1
6.3 6.2 6.1 6.0 5.7 5.7 5.7 5.6 5.6 5.4 5.4 5.3 5.3 5.2 5.2 5.1 5.0 4.9 5.0 5.0 5.0 5.0 5.0 5.0 4.9 4.9 5.0 5.1 5.2 5.6 5.7 5.7 5.8 6.0 6.0 6.1 5.9 5.8 6.0 6.1 6.1 6.0 5.9 6.1 6.1 6.2 6.2 6.1 6.3
6.2 6.1 6.0 5.9 5.7 5.5 5.5 5.4 5.3 5.2 5.2 5.2 5.1 5.2 5.3 5.3 5.1 4.9 4.7 4.5 4.5 4.6 4.7 4.9 5.0 5.0 4.9 4.9 5.0 5.0 5.1 5.3 5.6 5.6 5.7 5.8 5.9 6.0 5.9 5.9 6.0 6.0 5.9 5.9 6.0 6.1 6.2 6.1 6.4
6.0 5.9 5.9 5.7 5.6 5.5 5.3 5.1 5.1 5.2 5.1 5.0 4.9 4.9 4.8 4.8 4.7 4.7 4.5 4.5 4.6 4.6 4.5 4.6 4.7 4.8 4.9 4.9 4.9 4.9 4.9 5.0 5.2 5.4 5.6 5.6 5.7 5.6 5.7 6.0 5.9 5.9 5.9 5.7 5.8 5.9 6.0 6.1 6.2
5.7 5.7 5.6 5.5 5.4 5.2 5.1 5.1 5.1 5.1 5.1 5.1 5.0 4.7 4.5 4.5 4.5 4.5 4.4 4.4 4.3 4.2 4.3 4.3 4.3 4.3 4.5 4.7 4.8 4.8 5.0 5.0 4.9 5.1 5.3 5.4 5.5 5.7 5.6 5.6 5.8 6.0 5.9 5.8 5.6 5.7 5.8 6.1 6.1
5.7 5.5 5.3 5.1 5.0 4.9 4.6 4.7 4.6 4.9 5.1 5.2 5.1 4.8 4.5 4.3 4.2 4.0 4.1 4.1 4.3 4.3 4.2 4.2 4.2 4.3 4.3 4.4 4.4 4.4 4.6 4.7 4.8 4.8 5.0 5.2 5.2 5.3 5.4 5.6 5.6 5.8 5.9 5.9 5.8 5.6 5.6 5.7 6.1
5.5 5.2 5.2 4.9 4.6 4.3 4.3 4.2 4.1 4.8 4.9 4.8 4.7 4.5 4.5 4.3 4.2 3.9 3.8 3.7 3.7 3.7 3.9 4.0 3.9 4.0 4.0 4.1 4.3 4.4 4.2 4.4 4.4 4.3 4.6 4.8 5.1 5.2 5.1 5.3 5.4 5.6 5.7 5.8 5.9 5.8 5.6 5.7 5.9
5.5 5.3 5.2 5.1 4.8 4.4 4.1 4.2 4.3 4.6 4.7 4.2 4.0 4.0 3.9 3.9 3.9 3.8 3.9 3.9 4.0 3.6 3.4 3.2 3.4 3.7 3.7 3.8 3.9 4.0 4.2 4.5 4.5 4.4 4.1 4.4 4.6 5.0 5.1 5.1 5.1 5.2 5.4 5.7 5.7 5.8 5.7 5.7 5.8
5.1 5.0 4.9 5.0 5.0 4.7 4.3 4.1 4.0 4.5 4.3 4.1 3.9 3.8 3.7 3.7 3.4 2.9 2.6 2.5 2.4 2.5 2.7 3.0 2.9 2.7 2.9 3.1 3.4 3.4 3.5 3.8 4.0 4.1 4.3 4.3 4.3 4.4 4.7 5.0 5.0 4.9 5.1 5.3 5.5 5.5 5.7 5.5 5.7
5.1 4.9 5.0 4.5 4.6 4.3 4.2 3.9 4.0 4.1 4.1 3.9 3.6 3.4 3.1 2.8 2.3 2.0 1.8 1.7 1.7 1.6 1.7 1.7 1.8 2.0 2.3 2.6 2.9 3.2 3.4 3.3 3.0 3.1 3.6 4.0 4.1 4.0 4.1 4.4 4.8 5.0 4.8 5.0 5.2 5.3 5.4 5.8 5.7
5.1 4.8 4.5 4.3 4.1 3.9 3.4 3.3 3.6 3.5 3.1 2.8 2.7 2.6 2.3 1.9 1.7 1.4 1.4 1.2 1.2 1.2 1.4 1.6 1.5 1.6 1.9 2.0 2.2 2.3 2.4 2.4 2.5 2.8 3.0 3.1 3.6 3.9 3.8 3.7 4.2 4.6 4.8 4.7 4.8 5.3 5.0 5.2 5.6
5.1 4.7 4.4 4.0 3.9 3.7 3.8 3.2 3.3 3.4 3.1 2.7 2.4 2.1 1.8 1.7 1.5 1.4 1.3 1.3 1.5 1.6 1.7 1.6 1.6 1.8 1.8 1.9 2.1 2.4 2.6 2.7 2.8 2.7 2.5 2.6 3.0 3.2 3.4 3.4 3.5 4.0 4.4 4.5 4.6 4.8 5.2 4.9 5.1
5.0 4.6 4.3 4.0 4.0 3.8 3.9 3.0 3.4 3.5 3.1 2.5 2.3 2.0 1.6 1.5 1.4 1.4 1.5 1.6 1.5 1.5 1.3 1.5 1.7 1.8 1.8 2.0 2.3 2.6 3.0 3.4 3.4 3.4 3.2 2.8 2.8 2.9 3.2 3.0 3.0 3.3 3.7 4.2 4.4 4.5 4.8 5.0 4.8
4.7 4.3 4.1 3.8 3.8 3.8 4.1 3.2 4.2 3.9 3.5 3.1 2.5 2.1 1.8 1.7 1.7 1.8 1.7 1.6 1.5 1.4 1.8 1.9 1.9 2.1 2.8 3.2 3.8 4.6 5.2 5.5 5.7 5.5 5.2 4.5 3.6 3.2 2.9 3.0 2.8 2.7 3.0 3.5 4.0 4.2 4.3 4.7 4.8
4.4 4.2 3.9 3.5 3.2 2.7 2.8 2.3 3.0 3.4 3.1 2.9 2.6 2.3 1.9 1.7 1.7 1.6 1.5 1.4 1.6 1.8 1.9 2.0 2.6 3.5 4.5 5.3 5.5 5.5 5.5 5.8 6.0 6.1 6.1 5.9 5.5 4.5 3.5 3.0 2.8 2.6 2.5 2.7 3.2 3.7 4.0 4.2 4.7
4.2 4.0 3.7 3.4 2.8 1.8 2.2 1.8 2.7 2.9 3.1 2.8 2.4 2.0 1.8 1.6 1.6 1.5 1.4 1.7 1.7 1.7 2.1 2.9 4.1 5.2 5.4 5.4 5.2 5.1 5.1 5.2 5.5 5.8 5.9 5.9 6.1 5.9 5.2 4.0 3.1 2.6 2.4 2.3 2.6 3.0 3.6 3.9 4.3
3.9 3.8 3.6 2.2 2.0 0.4 2.0 2.0 2.5 3.0 2.9 2.7 2.3 1.9 1.5 1.5 1.5 1.6 1.9 1.9 1.8 2.4 3.3 4.4 5.4 5.6 5.4 5.1 4.9 4.8 4.8 4.8 4.9 5.2 5.5 5.7 5.8 6.1 6.0 5.5 4.4 3.2 2.7 2.4 2.4 2.7 3.0 3.5 3.9
3.5 3.6 3.5 1.9 0.8 1.8 1.8 1.4 3.2 2.6 2.4 2.2 1.8 1.5 1.4 1.6 1.9 2.1 2.1 2.1 2.7 3.6 4.7 5.5 5.6 5.5 5.2 4.8 4.8 4.7 4.7 4.6 4.6 4.7 5.0 5.3 5.6 5.8 6.0 6.1 5.6 4.7 3.4 2.7 2.6 2.6 2.8 3.1 3.5
3.0 3.4 3.6 2.3 1.3 0.5 2.0 1.7 3.0 2.5 2.1 1.9 1.6 1.6 1.8 2.0 2.1 2.2 2.4 2.8 3.8 5.0 5.7 5.6 5.4 5.2 4.9 4.7 4.7 4.8 4.8 4.8 4.8 4.8 5.0 5.1 5.2 5.4 5.7 6.0 5.9 5.6 4.9 3.7 3.0 2.7 2.8 2.9 3.2
2.5 2.6 3.0 2.7 1.2 0.4 1.7 1.7 2.6 2.4 2.1 1.8 1.9 2.0 2.0 1.9 2.3 2.8 3.2 3.8 4.8 5.7 5.6 5.3 5.0 4.8 4.6 4.6 4.7 4.8 4.9 5.1 5.1 5.1 5.1 5.2 5.3 5.2 5.3 5.6 5.9 5.8 5.6 5.1 4.0 3.3 3.2 2.9 3.1
2.7 2.6 2.4 2.3 1.2 1.2 0.7 1.1 3.3 2.8 2.3 2.3 2.1 1.8 1.7 2.2 2.8 3.2 3.9 4.5 5.5 5.6 5.3 5.0 4.8 4.5 4.4 4.5 4.8 5.0 5.3 5.4 5.4 5.4 5.4 5.5 5.5 5.5 5.3 5.3 5.6 5.9 5.7 5.7 5.3 4.3 3.7 3.3 3.0
2.2 2.0 2.1 2.5 2.2 0.1 -0.1 1.4 3.0 2.9 2.5 2.3 1.8 1.7 1.8 2.2 3.0 3.5 4.3 5.2 5.6 5.4 5.1 4.9 4.6 4.3 4.4 4.6 5.0 5.4 5.7 5.7 5.8 5.8 5.9 6.1 6.1 5.9 5.7 5.4 5.5 5.7 5.9 5.6 5.9 5.5 4.6 3.9 3.3
1.8 2.0 2.3 2.4 1.6 1.5 1.0 1.4 3.0 2.6 2.4 2.0 1.8 1.8 1.9 2.7 3.2 4.2 5.0 5.6 5.5 5.2 5.0 4.8 4.4 4.2 4.4 4.8 5.2 5.6 5.9 5.9 6.0 6.0 6.1 6.2 6.3 6.2 5.9 5.7 5.5 5.7 5.9 5.7 5.7 6.1 5.6 4.5 3.9
Wind_Speed
9 10 3 4 4 5 3 5 2 5 5 2 12 12 15 13 5 4 7 19 25 22 27 31 37 36 36 36 34 35 35 32 29 22 17 13 8 6 4 4 4 5 5 7 9 10 9 8 9
7 2 4 2 5 4 4 2 3 2 5 10 8 5 9 6 11 4 9 23 25 24 26 30 35 35 34 35 33 34 35 34 32 31 28 19 13 10 10 7 6 5 5 6 7 9 11 10 9
1 4 4 4 3 3 3 2 3 4 8 3 5 10 5 6 13 4 11 19 22 22 25 27 33 34 33 35 34 34 33 34 33 32 30 27 20 14 11 11 11 9 7 6 7 6 9 10 9
3 4 4 4 3 3 2 4 3 1 5 10 9 11 7 10 4 5 13 17 19 21 25 26 31 32 32 34 34 34 33 32 32 32 31 29 28 26 18 13 12 11 11 9 8 8 10 11 10
4 3 4 4 4 4 0 3 5 5 5 7 3 6 5 7 7 7 10 15 13 18 22 25 31 33 32 33 34 33 33 33 33 32 31 30 29 28 27 25 22 15 12 12 12 10 9 13 12
4 3 4 3 4 4 3 6 3 6 7 4 7 6 4 4 7 7 11 11 15 17 21 23 29 35 34 34 36 34 34 34 34 34 34 31 30 30 28 27 26 26 19 13 12 15 10 12 13
5 3 4 4 6 4 2 4 5 4 6 7 4 5 4 8 6 7 9 11 16 21 23 25 28 32 34 34 36 35 34 35 34 34 35 31 31 31 30 28 27 27 25 21 14 14 15 15 15
4 4 3 4 3 1 4 4 3 8 4 2 6 4 3 5 6 6 7 10 16 20 23 23 26 28 29 27 34 35 34 35 33 34 36 34 31 32 31 29 30 29 26 24 22 16 16 17 17
2 4 2 2 3 4 4 4 5 7 9 6 6 7 5 4 5 8 9 12 12 13 21 24 26 28 28 25 28 30 31 33 34 34 34 29 26 27 28 27 29 29 26 25 22 22 17 18 20
5 4 2 1 1 4 3 5 7 4 6 8 9 7 6 5 8 11 12 12 14 15 15 21 22 23 25 23 26 25 25 25 26 29 29 26 25 25 26 25 28 27 27 25 26 22 22 18 13
4 3 4 4 3 5 4 4 3 8 5 2 8 6 6 8 10 11 11 10 10 11 12 20 21 23 23 20 21 20 22 23 23 26 27 25 24 22 21 21 22 22 24 19 21 20 15 15 10
6 7 3 2 2 4 4 5 5 4 6 11 10 8 7 10 9 9 9 10 11 12 12 18 20 22 22 20 20 19 19 21 21 23 24 23 21 21 20 18 21 19 19 19 18 15 18 16 16
5 3 6 7 11 8 9 6 7 10 12 11 11 10 9 8 8 7 6 7 8 11 11 12 18 19 21 19 19 18 18 17 19 19 20 21 19 17 20 19 19 18 19 18 16 15 14 13 12
4 7 7 4 6 5 9 5 4 5 12 12 11 9 7 8 7 7 10 11 11 11 11 14 16 17 19 17 17 15 16 19 17 18 21 20 20 17 18 17 16 16 20 19 18 14 9 10 9
7 6 5 2 2 4 13 4 2 14 12 12 10 9 8 7 7 7 5 7 8 8 9 11 16 17 17 16 17 17 17 18 16 17 20 18 21 18 19 16 14 17 21 21 18 16 14 10 9
3 4 2 1 2 4 1 2 4 11 13 10 8 6 5 6 5 5 6 5 7 8 10 9 14 13 14 13 13 13 15 15 16 18 18 16 22 20 19 14 13 19 19 17 11 10 10 10 8
6 2 3 1 4 0 3 2 5 8 12 9 6 4 4 3 4 5 6 5 6 7 9 10 13 12 14 15 14 13 13 11 15 16 17 18 20 19 19 16 15 20 16 11 9 10 10 10 10
4 3 1 2 5 4 2 3 7 6 9 8 6 4 3 4 5 6 7 8 7 7 7 7 8 12 13 12 11 10 10 11 13 14 14 19 18 19 18 17 15 17 10 10 10 12 10 10 11
2 2 1 2 3 3 3 5 8 6 7 7 5 4 4 4 5 6 6 7 7 7 7 7 7 9 7 6 6 7 7 7 8 10 13 16 15 19 17 14 15 14 9 11 11 11 12 10 9
3 1 3 3 2 3 2 3 7 8 3 4 5 3 3 5 6 6 6 6 6 6 7 8 9 9 7 5 5 4 6 5 9 11 10 14 15 16 17 15 11 12 9 10 11 11 10 9 6
2 1 1 3 7 2 5 3 5 2 3 5 3 1 1 4 7 7 7 6 6 8 7 8 9 9 8 12 9 7 8 9 7 7 7 11 15 16 15 15 14 12 9 8 10 9 11 10 10
1 4 1 3 4 3 4 6 5 6 5 6 5 4 6 6 6 6 8 9 9 10 7 8 9 10 9 14 7 8 7 9 8 8 7 11 12 15 15 15 14 13 10 9 9 8 9 9 10
1 2 3 1 3 3 1 1 3 6 7 7 7 8 8 7 6 8 9 10 10 9 8 7 9 9 9 8 8 8 8 8 7 7 10 10 11 13 14 14 14 11 9 8 9 10 9 8 10
4 3 3 2 2 1 3 4 4 5 6 3 5 7 8 7 7 7 8 9 9 7 7 8 10 9 10 8 9 9 10 10 9 10 9 8 7 7 12 14 13 13 10 9 8 9 12 10 10
4 2 3 5 3 4 2 1 7 5 6 5 7 8 8 6 6 7 8 8 8 8 9 9 11 12 12 10 10 11 11 10 11 10 9 11 9 7 8 11 10 7 12 12 11 9 10 11 10
2 2 4 6 3 5 5 7 5 6 4 6 6 6 8 7 6 7 8 8 10 8 8 10 11 12 13 12 13 11 11 8 9 10 9 9 9 9 12 11 14 13 14 13 12 8 8 11 10
3 1 3 5 3 2 3 6 4 3 5 4 8 7 7 7 7 8 9 7 8 10 11 8 11 12 12 13 12 13 12 12 11 13 11 10 11 10 11 12 11 13 13 12 11 8 10 10 11
2 6 3 2 2 6 4 5 5 4 7 6 6 8 7 6 8 9 8 8 9 10 11 11 8 11 12 12 11 12 13 13 12 12 13 13 13 13 12 12 11 11 12 11 11 9 9 10 9
4 2 2 3 4 4 4 6 6 9 7 8 8 6 6 7 8 9 8 8 9 10 10 12 12 13 13 12 11 12 12 13 13 13 13 12 13 13 13 12 12 11 12 12 11 11 11 12 11
2 6 6 4 5 3 3 7 3 6 6 6 6 5 5 6 7 7 8 9 10 10 11 12 13 14 13 13 12 12 13 13 13 13 14 13 14 13 13 13 12 12 12 12 12 12 11 12 12
Wind_Direction
339 347 58 42 53 64 18 1 343 19 75 1 61 84 99 51 21 111 344 3 356 355 352 344 0 2 6 11 12 15 16 18 20 16 360 345 321 290 253 235 229 230 196 181 177 161 158 164 157
333 3 46 77 80 63 292 37 23 342 149 162 67 67 48 76 18 63 12 353 356 358 357 348 3 6 7 11 13 14 15 18 17 18 15 8 346 319 309 297 279 267 241 202 201 181 167 172 164
19 48 80 88 100 137 153 84 127 44 50 7 99 45 55 360 47 31 350 356 360 2 2 355 5 8 10 12 13 14 13 15 13 13 12 7 6 352 329 311 304 289 272 242 229 209 187 182 185
51 13 34 81 97 21 59 322 346 84 49 41 110 77 88 32 45 21 353 5 4 3 1 360 7 11 12 14 15 13 12 11 11 12 10 9 9 11 3 337 318 303 284 272 251 233 211 201 206
35 58 68 97 145 134 37 125 56 78 99 17 29 110 77 35 20 25 8 11 9 3 4 4 9 11 14 15 16 13 11 11 10 10 9 10 10 8 10 5 356 328 301 279 274 259 238 212 207
34 84 72 179 168 139 67 12 65 34 26 32 73 90 80 8 21 13 11 14 11 9 8 8 8 11 13 14 14 13 12 10 9 8 7 8 8 7 4 5 5 358 340 296 268 269 249 226 214
103 79 176 135 154 110 50 58 44 84 22 18 323 71 120 25 10 2 17 14 18 17 13 11 10 10 10 11 10 11 10 11 8 7 6 6 4 4 2 1 359 357 353 341 294 259 259 240 234
102 89 82 12 176 93 19 78 117 45 57 349 10 72 33 349 1 5 19 20 19 18 18 13 12 11 7 7 8 8 7 9 9 8 5 3 2 0 359 359 355 351 350 346 342 294 254 248 238
97 64 119 164 145 141 25 92 40 57 76 51 42 70 91 28 15 29 24 23 21 19 16 11 9 8 6 8 6 6 5 5 5 5 3 2 1 356 353 351 350 351 350 347 347 345 286 253 244
69 89 126 359 118 128 82 90 121 108 99 94 88 81 80 54 39 38 27 19 16 13 10 11 11 9 7 6 3 2 3 4 1 1 359 359 357 353 351 349 349 348 348 347 345 338 331 279 244
24 91 144 17 105 111 98 66 57 132 60 80 124 105 67 54 39 36 28 22 13 5 8 6 8 7 8 5 4 3 360 0 357 359 359 353 354 352 351 349 347 344 347 346 343 338 331 318 244
91 36 71 21 28 79 82 101 65 44 101 113 108 95 79 60 48 38 30 18 8 6 4 1 4 7 5 2 3 359 1 359 354 353 354 353 353 350 348 345 341 344 342 341 337 326 319 306 299
88 122 54 83 76 59 77 58 109 103 111 109 105 87 71 57 45 32 29 24 14 11 359 359 357 6 0 360 357 356 355 355 347 347 348 352 353 346 343 340 339 338 340 338 328 320 315 310 300
95 97 128 71 87 113 109 138 94 139 125 112 102 88 77 67 44 30 22 11 11 3 359 354 356 3 356 356 354 352 349 348 346 345 342 346 352 343 342 337 337 334 338 329 323 315 311 307 298
145 99 109 50 122 116 128 84 100 141 129 110 93 81 68 52 40 30 16 15 358 354 348 356 356 356 353 350 348 348 345 344 343 341 339 340 349 340 339 335 333 337 331 325 326 322 317 308 296
65 80 133 54 29 171 176 172 159 135 126 119 115 104 79 50 31 18 5 356 352 345 348 343 344 338 342 341 339 339 340 338 337 337 336 340 342 339 336 333 329 333 328 325 327 324 319 312 306
14 194 197 162 51 261 196 149 142 140 129 127 123 108 93 50 20 0 347 334 341 336 337 334 336 333 332 332 332 329 330 333 333 331 332 337 336 336 333 328 329 332 328 327 328 324 319 314 309
194 187 283 254 347 5 258 130 132 151 135 138 139 122 73 26 4 338 339 337 329 318 311 302 307 306 311 309 309 310 318 326 324 328 330 331 329 332 327 321 330 332 327 326 329 321 322 308 299
63 59 257 124 2 329 255 168 176 147 126 145 152 114 54 20 327 318 309 301 303 302 302 305 305 307 317 321 320 322 319 320 313 309 320 324 323 326 320 320 326 327 325 330 320 318 323 322 329
50 25 319 275 17 346 262 252 158 159 164 165 156 130 38 344 328 311 293 290 293 290 306 315 313 317 312 306 298 280 302 297 293 298 306 312 317 320 321 322 319 320 320 321 321 323 326 314 350
89 117 87 244 330 280 311 197 170 134 123 151 161 110 343 302 297 302 309 297 294 311 306 316 315 309 307 303 303 296 292 291 305 311 310 303 306 311 311 314 313 314 315 314 311 318 333 312 315
255 134 86 292 12 262 8 289 219 183 189 203 208 260 270 281 291 292 315 325 323 311 308 310 308 306 307 311 310 301 302 302 301 300 301 298 287 298 299 303 305 306 306 304 301 315 310 310 307
342 330 278 226 181 17 197 136 292 134 224 225 236 250 260 268 283 296 319 313 304 308 306 297 296 297 297 297 295 301 298 296 300 296 296 300 292 275 287 289 296 298 300 294 303 305 302 294 297
331 27 74 61 114 344 209 159 247 189 210 237 241 246 253 277 294 311 300 302 301 306 304 301 302 300 309 297 294 292 288 294 300 300 300 299 297 285 275 281 286 288 290 289 297 295 291 293 292
50 39 320 335 355 250 118 206 253 231 222 210 197 232 251 279 300 292 296 300 302 298 301 307 315 308 311 305 302 299 294 293 289 289 293 296 296 291 281 279 284 281 281 284 286 287 292 286 288
68 134 153 249 267 284 326 237 261 216 250 244 246 256 276 281 282 284 293 299 305 295 291 297 302 303 306 305 302 300 294 294 291 288 288 287 288 286 284 275 273 275 281 282 281 280 283 281 281
144 126 144 109 178 15 243 289 313 280 267 248 247 254 261 277 289 298 298 298 294 298 299 285 295 299 300 301 299 296 294 290 289 289 285 285 283 282 280 281 280 279 277 276 276 275 279 280 281
171 152 89 37 257 266 277 277 239 257 248 251 258 246 272 288 304 304 302 296 296 298 300 302 290 292 294 292 289 291 290 290 288 288 285 282 282 281 280 277 269 269 274 272 272 275 272 276 277
151 184 107 115 160 198 294 258 214 194 206 223 238 238 261 284 286 292 293 293 297 297 300 306 307 304 300 295 290 288 286 288 289 288 286 283 283 280 278 275 270 265 267 270 268 269 270 268 272
189 190 162 152 234 215 149 274 208 209 217 209 235 265 284 277 292 290 288 296 296 298 305 308 306 305 302 301 297 293 291 291 290 287 286 284 280 278 276 273 269 264 260 266 266 265 271 272 272